PALAPA D

导读

PALAPA-D(帕拉帕-D)是印度尼西亚的商业通信卫星,于北京时间2009年8月31日,由中国在西昌卫星发射中心通过长征三号乙运载火箭发射升空。该卫星由法国泰雷兹阿莱尼亚宇航公司为印尼卫星公司研制,定点于地球同步静止轨道,主要提供通信广播服务,设计可在轨运行十余年,发射后顺利完成变轨定点,长期保持正常运行状态。

基本信息
目录编号:
35812
目录名称:
PALAPA D
国际标识:
2009-046A
轨道中心:
EARTH
卫星名称:
PALAPA D
卫星全名:
--
卫星状态:
在轨 (已飞行6161 天)
发射日期:
2009-08-31 UTC
国别 :
印度尼西亚 (ID)
星等 :
--
轨道信息
数据来源 国际轨道数据 AOE轨道数据
星历时间 2026-07-13T15:46:21+0800
22小时前
查看轨道信息
2026-07-12T02:00:00+0800
2天前
查看轨道信息
半长轴 42597.705km 42597.964km
偏心率 0.0018422 0.0018446
轨道倾角 5.774° 5.770°
近地点辐角 45.145° 44.897°
升交点赤经 75.090° 75.109°
平近点角 314.878° 115.609°
近地点 36141.094km 36141.25km
远地点 36298.042km 36298.404km
周期 1458.274分钟 1458.287分钟
每日圈数 0.987469 0.98746
详细信息
使用方式:
暂无
2D轨道图
3D轨道图
轨道高度分析图
轨道倾角分析图
轨道综合分析图
查看轨道综合分析图